TimeMDT,TemperatureF,Dew PointF,Humidity,Sea Level PressureIn,VisibilityMPH,Wind Direction,Wind SpeedMPH,Gust SpeedMPH,PrecipitationIn,Events,Conditions,WindDirDegrees,DateUTC
12:53 AM,63.0,37.9,40,30.08,10.0,SE,11.5,-,N/A,,Mostly Cloudy,130,2012-09-15 06:53:00
1:53 AM,63.0,34.0,34,30.07,10.0,SE,12.7,-,N/A,,Mostly Cloudy,130,2012-09-15 07:53:00
2:53 AM,63.0,39.0,41,30.06,10.0,SSE,12.7,-,N/A,,Scattered Clouds,150,2012-09-15 08:53:00
3:53 AM,60.1,39.9,47,30.07,10.0,ESE,11.5,-,N/A,,Partly Cloudy,110,2012-09-15 09:53:00
4:53 AM,61.0,36.0,39,30.07,10.0,SSE,13.8,-,N/A,,Partly Cloudy,150,2012-09-15 10:53:00
5:53 AM,61.0,35.1,38,30.07,10.0,SE,11.5,-,N/A,,Partly Cloudy,140,2012-09-15 11:53:00
6:53 AM,57.9,36.0,44,30.09,10.0,SE,10.4,-,N/A,,Scattered Clouds,130,2012-09-15 12:53:00
7:53 AM,60.1,37.0,42,30.12,10.0,SE,9.2,-,N/A,,Mostly Cloudy,140,2012-09-15 13:53:00
8:53 AM,66.9,37.0,33,30.10,10.0,SE,10.4,-,N/A,,Mostly Cloudy,140,2012-09-15 14:53:00
9:53 AM,73.0,35.1,25,30.11,10.0,SSE,12.7,-,N/A,,Scattered Clouds,160,2012-09-15 15:53:00
10:53 AM,77.0,34.0,21,30.11,10.0,SE,6.9,-,N/A,,Scattered Clouds,130,2012-09-15 16:53:00
11:53 AM,82.9,27.0,13,30.09,10.0,South,15.0,-,N/A,,Scattered Clouds,190,2012-09-15 17:53:00
12:53 PM,84.9,26.1,12,30.08,10.0,South,11.5,-,N/A,,Scattered Clouds,190,2012-09-15 18:53:00
1:53 PM,86.0,23.0,10,30.06,10.0,Variable,6.9,-,N/A,,Scattered Clouds,0,2012-09-15 19:53:00
2:53 PM,88.0,26.1,11,30.03,10.0,NNE,4.6,-,N/A,,Scattered Clouds,30,2012-09-15 20:53:00
3:53 PM,89.1,25.0,10,30.01,10.0,NW,6.9,-,N/A,,Scattered Clouds,320,2012-09-15 21:53:00
4:53 PM,89.1,26.1,10,29.99,10.0,NW,10.4,-,N/A,,Scattered Clouds,320,2012-09-15 22:53:00
5:53 PM,87.1,23.0,10,29.98,10.0,NW,6.9,-,N/A,,Scattered Clouds,310,2012-09-15 23:53:00
6:53 PM,84.0,30.0,14,29.98,10.0,North,6.9,-,N/A,,Partly Cloudy,10,2012-09-16 00:53:00
7:53 PM,80.1,28.9,15,29.97,10.0,Calm,Calm,-,N/A,,Partly Cloudy,0,2012-09-16 01:53:00
8:53 PM,73.9,30.9,21,29.98,10.0,South,5.8,-,N/A,,Clear,170,2012-09-16 02:53:00
9:53 PM,72.0,28.9,20,29.97,10.0,SE,8.1,-,N/A,,Clear,130,2012-09-16 03:53:00
10:53 PM,68.0,28.9,23,29.96,10.0,SE,9.2,-,N/A,,Clear,140,2012-09-16 04:53:00
11:53 PM,68.0,32.0,26,29.96,10.0,SSE,10.4,-,N/A,,Partly Cloudy,150,2012-09-16 05:53:00